Tracking 29892 objects as of 21-Nov-2024
HD Live streaming from Space Station
objects crossing your sky now

CZ-6A DEB

Track CZ-6A DEB now!
10-day predictions


NORAD ID: 54904
Int'l Code: 2022-151QR
Perigee: 683.1 km
Apogee: 822.6 km
Inclination: 99.1 °
Period: 99.7 minutes
Semi major axis: 7123 km
RCS: Unknown
Launch date: November 11, 2022
Source: People's Republic of China (PRC)
Launch site: Taiyaun Space Center, China (TSC)

Note: This is SATELLITE DEBRIS
Your satellite tracking list
Your tracking list is empty




NASA's NSSDC Master Catalog

Two Line Element Set (TLE):
1 54904U 22151QR  24325.11955879  .00012349  00000-0  34254-2 0  9993
2 54904  99.0828  24.6363 0097974 311.1430  48.1334 14.43879450105568
Source of the keplerian elements: AFSPC